Location: Saint-Palais-sur-Mer
(45.6429°N, 1.0859°W)
Time: 15:29:17
(UTC+01:00)

S-56A Canister/Altair - Pass Details

Date: 16 February 2026
Orbit: 633 x 2484 km, 38.9° (Epoch: 16 March)

Event Time Altitude Azimuth Distance (km) Brightness Sun altitude
Exits shadow 06:58:19 14° 263° (W) 3,726 10.4 -12.3°
Maximum altitude 07:06:11 31° 211° (SSW) 3,161 10.4 -10.9°
Drops below altitude 10° 07:17:34 10° 158° (SSE) 5,018 12.1 -8.9°
Sets 07:22:22 0° 149° (SSE) 6,121 12.8 -8.1°
